METEOR-M2 3
Last updated on Mon Jun 22 2026 00:02:46 GMT+0000 (Coordinated Universal Time)
1 57166U 23091A 26172.52499583 -.00000006 00000+0 16221-4 0 9995
2 57166 98.6080 227.4146 0004589 144.4775 215.6710 14.24047159155136
Next 0 passes for location: London (51.5072 / 0.1276)
No passes found over London.